STARLINK-1723, 46333

Orbit data source: Space-Track

STARLINK-1723, 46333 is a payload satellite owned by SpaceX/Seattle (US) in LEO that was launched on Thu, 03 Sep 2020 UTC via an FALCON 9 launch vehicle from the Air Force Eastern Test Range (AFETR). Payload-class satellites include a variety of spacecraft equipped with specific instruments for various scientific and technological missions. These include communications satellites like Starlink; space stations such as the ISS; scientific satellites like the Hubble; Earth observation satellites from companies like Planet Labs, Umbra, and HawkEye 360; GPS; miniature CubeSats for education and research; and military/defense satellites.

Loading next visibility...
Identifier
46333, 2020-062J
Orbit
LEO
Last TLE update
13 hours ago
Origin
Manufacturer
SpaceX/Seattle
Mission
Operational Commercial Communications
Bus & Motor
STARLINK, Unknown motor
Mass
260 kg wet, ~248 kg dry
Launch date (UTC)
2020-09-03 (5 years ago)
Launch vehicle
FALCON 9
Launch site
Air Force Eastern Test Range (AFETR)
Object type
Payload
Rocket body
Debris
Shape & HBR
Box + 1 Pan, 8.86 m
Radar Cross Section
13.562 m², Large (>1 m²)

Expand to show TLE details & history

TLE from 13 hours ago
0 STARLINK-1723
1 46333U 20062J   25181.88249836  .00000525  00000-0  54114-4 0  9995
2 46333  53.0555  67.0265 0001523  83.3878 276.7285 15.06403074266537
Epoch: 2025-06-30T21:10Z
TLE epoch observation values (Epoch: 2025-06-30T21:10:47.858Z)
Latitude
0.00004°
Longitude
-169.8588°
Altitude
547.958 km
Speed
7.589 km/s
True Right ascension
04h 28m 06s
True Declination
0° 00' 00"
Sunlit
Object was in daylight at epoch
Visualization orbit readout
Latitude
28.18715°
Longitude
-148.64301°
Altitude
547.91 km
Speed
7.592 km/s
Apparent Right ascension
07h 34m 11s
Apparent Declination
-4° 49' 56"
Sunlit
Object is in daylight
Visualization observer readout
Local Sidereal Time
21:43:03
Azimuth
48.115° ENE
Elevation
-44.48°
Doppler factor
1
Orbital elements
Apogee altitude
548.527 km
Perigee altitude
546.418 km
Semi-major axis
6,925.61 km
Eccentricity
0.00015
Inclination
53.0555°
RAAN
67.0265°
Arg. of periapsis
83.3878°
True anomaly
Unknown
Mean anomaly
276.7285°
Eccentric anomaly
Unknown
Mean motion
3.76579 °/min
Orbital period
95.6 mins
BSTAR
0.000054114
Loading maneuver chart data...
Loading SW <> Apogee altitude chart data...
Loading historical data...
Loading historical data...
Loading historical data...
Loading historical data...
Loading historical data...
Loading historical data...
Loading historical data...

STARLINK-1723 Visibility forecast

Observer location: undefined°, undefined°

Span
Click to sort rows by Start time (UTC) header in descending order
Start Az.
Max El. time (UTC)
Max El. Az.
Max El.
End time (UTC)
End Az.
6 mins2025-07-01 18:01:39.988Z182.173° SSW2025-07-01 18:04:39.988Z129.548° SE22.958°2025-07-01 18:07:39.988Z77.097° E
6 mins2025-07-01 19:41:39.988Z261.825° W2025-07-01 19:43:39.988Z310.588° NW35.469°2025-07-01 19:47:39.988Z39.75° NE
5 mins2025-07-02 00:43:39.988Z339.824° N2025-07-02 00:45:39.988Z24.863° NE27.288°2025-07-02 00:48:39.988Z86.198° E
6 mins2025-07-02 02:22:39.988Z291.46° WNW2025-07-02 02:25:39.988Z214.221° SW34.352°2025-07-02 02:28:39.988Z157.209° SSE
|